Location: Unspecified
(29.9680°N, 0.0000°E)
Time: 18:26:44
(UTC+00:00)

Explorer 7 - Pass Details

Date: 28 June 2019
Orbit: 485 x 680 km, 50.3° (Epoch: 18 July)

Event Time Altitude Azimuth Distance (km) Brightness Sun altitude
Rises 14:14:18 0° 302° (WNW) 2,975 10.9 60.1°
Reaches altitude 10° 14:16:50 10° 292° (WNW) 2,082 10.4 59.5°
Maximum altitude 14:21:04 31° 231° (SW) 1,183 9.5 58.6°
Drops below altitude 10° 14:25:20 10° 170° (S) 2,105 9.9 57.7°
Sets 14:27:55 0° 160° (SSE) 3,014 10.5 57.1°
